GFSNGP_500_spd_021.txt.gz
Wind_Speed
58 59 62 64 66 70 73 81 87 87 91 86 69 54 43 43 46 50 50 45 44 41 38 45 41 41 42 41 43 57 80 73 70 70 69 61 59 59 57 55 54 52 52 52
61 60 63 66 69 76 79 80 86 82 83 59 57 47 39 40 44 48 47 46 42 43 38 38 40 43 46 42 40 39 53 73 76 63 67 69 64 61 59 57 55 53 50 48
61 63 67 70 76 75 78 79 81 73 70 54 48 42 38 44 48 48 46 47 46 43 40 37 35 39 40 44 33 33 38 53 62 74 55 70 66 65 59 54 56 53 48 43
67 68 69 72 71 74 77 79 70 64 58 46 44 44 36 46 51 50 47 48 51 46 38 33 34 38 37 40 38 33 31 36 48 61 47 54 71 70 63 55 57 51 48 44
66 68 69 74 70 73 76 78 57 55 43 37 43 49 38 45 48 49 49 45 48 46 44 38 35 37 40 37 37 33 27 30 33 63 51 44 54 69 68 61 60 57 52 48
68 71 69 67 71 74 78 72 52 45 44 46 46 50 45 45 42 44 44 44 43 42 42 43 40 40 38 37 34 31 25 27 30 45 66 54 51 57 67 61 58 60 55 49
67 67 70 69 72 72 68 58 49 49 47 45 46 50 46 45 47 40 41 40 39 39 40 34 35 42 39 36 37 33 28 28 30 33 50 53 60 46 65 62 60 59 56 51
65 68 63 64 64 57 57 55 50 50 47 50 53 51 50 50 44 40 40 38 39 35 31 34 40 35 39 36 36 35 31 28 29 29 39 56 56 57 62 64 58 58 58 53
64 63 67 62 57 54 52 43 47 52 52 53 52 50 46 45 41 39 42 43 40 39 39 36 40 42 38 39 34 34 33 31 29 30 39 59 54 56 61 66 62 60 56 51
66 61 66 56 52 51 52 52 52 50 49 50 53 50 50 47 43 43 44 43 44 38 39 37 41 39 36 35 34 30 33 36 31 29 39 58 56 60 46 67 63 63 59 48
65 65 71 55 53 53 54 55 56 55 53 50 51 51 55 56 51 46 45 39 40 40 40 40 42 37 31 33 33 29 33 37 31 30 40 59 55 60 51 67 68 65 52 46
68 64 64 56 53 55 58 60 57 56 54 52 54 55 57 58 57 55 53 51 49 45 45 44 42 33 28 29 26 26 32 40 35 35 40 49 53 49 47 67 67 58 51 47
68 65 62 56 55 60 62 57 57 55 52 54 52 52 53 54 54 53 48 46 46 45 43 39 34 28 25 22 20 28 32 35 30 37 40 51 54 57 44 50 61 54 50 44
63 61 57 51 54 57 59 56 53 50 48 48 47 46 47 47 44 42 40 41 42 40 35 33 27 23 24 21 19 20 12 26 33 32 43 51 51 49 45 54 57 46 37 32
62 60 58 53 56 59 59 51 46 44 43 44 46 46 45 42 38 34 31 31 29 29 28 24 21 21 19 14 14 8 27 31 31 28 32 38 45 49 39 39 41 39 35 32
62 59 55 56 57 57 50 45 42 43 46 46 45 44 44 43 38 29 29 28 24 20 19 18 18 15 14 8 8 11 32 33 29 32 38 45 39 40 39 32 30 32 33 32
61 57 52 54 57 49 45 43 45 47 44 40 39 41 40 36 27 24 22 19 13 12 14 14 10 10 3 5 5 14 32 35 33 30 35 45 39 30 34 31 32 22 23 25
59 55 51 54 53 45 44 45 46 42 36 35 35 32 31 30 23 20 16 12 9 8 10 9 9 4 3 5 12 14 22 23 27 27 26 41 44 45 45 29 33 28 27 25
57 52 50 52 50 46 45 43 40 33 32 33 36 31 30 29 23 15 7 4 6 6 6 2 4 4 8 13 15 16 29 33 31 32 33 31 38 34 31 32 30 30 28 25
53 49 49 48 46 44 43 39 33 30 30 29 29 25 22 18 16 13 8 4 8 7 8 6 6 10 11 8 17 17 22 27 25 23 27 28 30 23 25 31 29 26 25 27
50 46 47 45 41 42 39 35 27 26 23 24 22 19 16 14 13 10 11 13 9 8 5 6 9 13 11 13 22 20 20 23 27 27 27 22 19 23 25 24 24 24 23 22
47 43 45 42 38 40 35 30 22 21 21 21 21 19 17 17 15 8 7 11 11 7 6 7 10 13 12 16 24 25 22 21 22 21 22 26 26 25 25 24 24 23 22 22
44 41 42 39 36 37 33 27 20 17 17 20 17 18 17 17 13 17 11 10 7 5 6 7 11 12 15 18 26 27 26 27 28 29 27 24 23 22 20 18 17 17 17 16
42 40 40 37 33 35 31 25 19 12 13 16 15 13 15 12 6 10 8 5 3 2 5 9 12 13 14 16 24 27 27 25 24 24 22 21 20 17 16 18 19 18 18 15
39 38 38 35 31 33 29 23 17 9 10 11 13 14 13 18 10 6 4 2 1 1 2 4 10 12 12 17 21 20 19 18 20 20 20 20 19 20 20 20 20 18 15 14
36 37 36 33 28 30 27 22 15 9 8 7 8 11 14 15 11 5 4 5 2 2 1 1 4 8 12 14 15 16 15 15 15 16 18 19 21 22 22 20 17 15 13 10
34 34 34 32 28 27 26 21 16 8 7 9 5 7 10 10 12 8 6 5 2 2 5 6 6 8 10 13 13 13 16 17 19 20 21 20 19 17 17 15 13 11 10 9

GFSNGP_500_spd_024.txt.gz
Wind_Speed
56 59 61 63 62 63 65 72 75 74 81 81 79 82 83 82 75 61 53 51 50 48 49 43 47 50 47 45 45 43 45 43 40 41 42 67 73 53 64 65 61 63 63 63
58 59 62 63 63 66 66 69 74 75 75 73 79 79 78 67 49 49 49 51 51 49 48 46 49 52 48 43 42 43 39 37 40 36 36 42 77 49 52 62 58 61 61 60
59 62 64 62 62 62 63 67 71 71 74 73 75 76 74 47 44 51 52 55 49 48 48 48 48 47 46 44 40 40 39 33 39 32 32 33 75 58 30 59 56 56 54 53
60 61 63 63 65 65 63 65 66 70 69 73 71 69 63 50 52 54 53 54 52 49 46 44 44 43 43 41 43 42 37 36 39 35 32 27 45 73 37 50 56 56 52 49
59 62 62 60 66 64 62 63 67 71 72 69 65 61 55 47 48 52 55 53 51 47 43 41 40 42 39 38 38 44 40 38 38 40 25 25 33 72 55 39 58 56 55 51
57 59 59 59 61 64 69 66 68 67 66 61 59 57 53 50 52 54 56 57 55 48 41 38 39 40 34 36 41 41 41 39 38 36 30 20 24 60 54 47 61 56 55 51
55 58 61 63 65 66 68 70 68 66 61 59 60 60 62 57 51 53 53 49 47 46 44 40 41 40 39 38 38 42 39 40 38 34 28 21 21 47 43 43 52 62 57 55
54 58 63 66 65 62 66 68 62 62 60 63 64 64 62 61 59 54 55 56 48 48 45 40 42 43 43 40 40 40 37 41 37 34 28 19 21 38 55 47 55 61 57 59
57 57 61 65 66 66 65 68 65 63 64 69 67 65 62 61 60 59 54 53 53 53 48 43 44 45 45 42 43 38 34 41 39 33 28 22 18 37 58 39 36 54 62 66
56 58 64 66 69 73 68 64 61 62 68 69 69 65 58 57 55 54 53 51 51 53 54 48 43 42 43 42 42 39 33 36 39 33 28 23 21 31 40 33 31 56 68 66
56 62 64 68 68 69 71 67 64 65 68 67 61 55 55 53 53 53 51 48 45 46 48 49 50 46 46 45 42 36 31 31 35 32 32 23 23 31 32 34 33 50 67 60
59 65 68 68 68 66 65 60 62 69 61 54 53 52 53 55 57 57 54 51 46 41 41 40 41 43 43 41 36 33 25 28 32 32 31 25 25 35 41 43 37 42 58 59
60 64 67 65 65 64 62 60 64 62 55 51 52 56 58 58 55 54 52 48 46 41 37 32 29 31 35 31 31 26 23 26 27 32 28 22 35 39 43 42 38 43 48 49
61 64 65 65 67 64 60 59 64 56 54 58 57 52 49 48 45 46 46 43 35 34 28 23 19 18 21 26 21 21 20 22 27 29 31 26 42 40 43 35 40 37 53 53
61 65 67 65 63 60 57 57 59 51 54 55 48 45 46 43 46 48 45 35 26 26 20 15 13 15 16 15 16 12 15 24 33 23 30 38 43 41 36 35 39 42 52 54
60 62 64 63 62 59 56 57 55 51 54 47 43 44 46 48 46 44 37 32 23 19 16 13 11 7 10 14 10 8 10 11 23 29 40 40 39 42 43 37 34 42 46 55
60 60 62 61 61 56 54 57 51 52 51 42 40 41 45 44 40 35 29 23 16 15 12 6 3 8 9 9 9 4 9 25 28 34 37 36 42 45 44 38 31 33 45 58
61 60 62 60 60 54 51 52 48 51 43 37 37 40 41 39 34 30 25 21 18 14 9 7 10 10 8 5 7 11 18 21 24 30 34 40 41 44 38 30 32 34 39 41
60 60 60 56 55 51 50 48 46 48 37 33 34 35 35 33 30 26 21 17 14 12 13 13 13 10 8 12 13 15 24 24 22 25 39 39 45 39 32 27 29 29 27 23
58 59 57 53 52 48 47 44 45 42 32 28 31 30 28 27 28 26 19 14 14 15 14 16 11 12 11 10 15 18 24 30 29 29 34 36 36 39 36 29 28 24 19 21
56 57 54 49 48 45 44 41 42 38 27 23 25 25 27 29 27 24 25 17 18 18 17 13 10 12 11 10 14 17 21 22 26 30 32 36 37 34 29 29 25 23 25 21
54 55 49 46 45 41 41 38 40 35 24 21 21 22 24 23 23 23 23 18 19 18 15 10 9 8 10 12 15 17 20 24 27 26 29 29 27 25 25 26 27 27 23 21
52 52 45 43 42 38 38 36 36 32 23 19 16 17 19 26 17 20 14 13 15 15 13 8 6 9 11 13 17 20 20 22 24 24 25 26 25 22 21 23 23 21 18 16
50 49 41 39 39 36 35 34 34 30 23 18 14 12 16 23 18 15 11 13 14 13 9 7 6 8 13 17 22 24 25 24 23 22 22 22 22 22 21 19 19 19 18 17
47 44 37 36 36 34 32 31 32 30 23 19 14 11 11 14 20 12 9 12 13 11 9 7 8 9 14 16 19 21 21 21 20 20 20 19 18 17 17 17 17 17 18 22
43 39 34 34 33 32 31 30 28 27 23 20 15 11 8 8 12 10 10 9 8 7 9 7 6 7 10 12 13 15 17 17 17 18 18 17 16 16 18 20 20 22 22 21
39 35 32 32 31 29 29 29 27 26 22 19 16 12 10 6 5 7 8 8 7 6 6 6 4 4 6 8 9 11 13 15 16 15 15 15 18 22 23 23 24 23 21 19

GFSNGP_500_spd_030.txt.gz
Wind_Speed
45 47 47 47 48 51 54 56 59 57 64 63 63 66 69 72 74 77 76 77 76 75 73 70 64 61 60 57 56 56 56 52 48 47 50 47 48 43 39 38 45 46 47 46
45 47 49 48 48 53 55 58 60 63 61 65 66 72 75 74 74 75 77 77 76 73 70 68 64 64 60 58 56 55 52 52 53 48 47 44 43 42 42 38 38 40 44 47
49 52 52 48 50 55 56 58 60 64 65 65 69 74 75 77 78 79 78 76 74 72 69 66 63 63 62 60 56 55 53 44 46 46 46 44 39 39 41 41 35 37 41 45
54 56 55 51 54 56 55 58 61 65 66 70 73 74 76 74 78 78 76 74 71 68 66 62 63 63 62 60 57 53 51 46 44 45 43 39 36 37 37 38 35 36 37 36
57 57 55 50 53 53 55 54 61 65 68 71 75 76 72 74 76 78 73 72 66 64 65 65 67 64 62 59 56 55 50 45 46 45 42 40 39 38 35 34 33 37 33 34
57 59 57 52 54 57 59 59 63 66 68 72 76 80 77 76 75 72 71 65 64 68 71 70 66 64 61 58 57 55 48 45 44 43 42 39 39 39 38 31 29 31 32 32
58 60 56 52 56 57 60 65 65 67 68 74 76 78 81 81 74 72 68 67 70 69 64 59 59 58 52 49 50 51 48 44 43 42 41 39 35 36 36 27 27 28 28 26
58 61 56 55 56 60 64 64 65 66 71 73 76 76 78 77 73 70 71 70 64 64 61 61 58 53 54 52 49 45 42 39 39 41 38 35 35 33 31 24 26 23 26 23
55 58 51 56 58 61 62 63 64 68 71 77 78 75 78 72 69 69 70 65 65 63 58 54 55 52 51 51 46 39 35 33 32 35 36 32 31 29 24 22 24 18 28 27
60 50 52 58 59 62 62 62 65 70 73 76 75 75 73 71 69 68 64 63 59 57 54 50 47 42 43 38 34 31 32 28 27 27 33 30 26 23 19 20 20 23 32 29
57 51 53 54 59 61 59 62 68 69 72 73 73 74 70 66 67 62 61 56 53 52 48 42 38 36 35 33 31 28 24 20 20 19 23 22 19 18 18 20 17 31 31 25
55 52 52 54 59 57 59 64 64 66 68 70 71 69 63 65 59 59 56 50 48 46 43 40 38 34 30 27 24 19 12 9 8 12 15 14 16 17 19 16 22 32 29 23
48 49 53 58 57 57 59 59 62 64 68 66 67 62 60 57 52 51 45 45 45 47 43 38 34 30 27 24 21 16 10 7 5 7 11 15 19 20 13 16 28 31 27 37
47 51 53 56 55 54 56 59 60 64 64 64 64 56 56 48 46 44 44 48 45 41 43 40 36 33 29 26 21 17 11 5 2 6 13 20 23 16 17 25 32 32 34 52
45 45 47 50 51 53 55 56 58 61 60 60 57 52 51 40 40 39 46 41 41 42 41 39 37 31 25 20 17 12 8 5 3 10 19 20 18 15 22 38 33 31 44 61
44 48 49 50 50 50 52 54 56 57 57 57 51 48 46 36 36 38 40 41 46 42 40 36 34 30 26 25 19 17 14 4 10 16 18 19 17 19 42 41 34 39 53 60
48 48 48 47 45 47 50 51 54 55 55 54 47 44 40 32 31 34 33 38 44 41 35 35 38 40 30 26 26 19 3 11 19 19 21 18 18 46 39 36 39 44 50 58
44 44 44 44 45 47 49 50 52 53 51 51 43 41 37 30 30 31 31 34 40 36 32 31 37 40 27 26 21 15 18 22 23 22 19 15 36 33 27 36 48 52 49 54
40 42 43 43 43 45 48 49 50 50 48 47 40 38 37 29 29 29 30 30 36 36 30 31 33 35 22 23 14 15 17 24 23 22 19 29 36 32 28 34 45 46 45 48
41 43 43 42 43 46 47 49 48 47 45 44 38 35 37 28 28 30 26 28 32 35 32 30 30 30 21 19 13 20 21 24 26 25 31 37 36 33 36 39 42 43 41 42
41 42 42 42 44 45 46 46 45 43 42 41 35 33 34 24 24 25 22 24 26 29 27 27 26 24 17 15 12 19 22 20 24 31 28 31 29 31 35 34 39 42 38 36
41 42 43 44 45 45 44 43 43 40 39 37 33 32 32 23 22 25 19 20 23 24 23 23 22 20 16 12 13 19 24 25 24 27 32 32 31 29 28 35 39 40 37 35
41 42 44 44 44 43 41 42 40 37 36 33 30 30 30 20 16 21 20 19 20 20 20 21 19 18 15 10 13 22 25 27 29 30 31 30 31 32 34 34 33 30 27 26
41 43 43 43 41 40 40 39 36 36 33 31 27 27 27 22 14 17 15 14 17 18 18 18 15 16 13 11 13 20 24 27 27 27 28 31 33 32 34 36 32 30 31 29
41 41 42 40 38 38 37 34 34 35 31 28 26 25 22 20 16 14 16 14 14 15 15 13 11 12 12 11 10 18 24 26 27 28 28 26 29 30 29 28 28 29 30 26
39 40 36 35 36 35 32 31 33 32 29 27 24 24 20 20 15 12 14 13 11 12 12 9 6 6 9 9 13 17 25 27 28 27 26 26 27 27 27 26 24 22 22 23
36 33 34 35 34 32 30 31 33 29 27 26 23 23 19 19 15 14 13 13 10 8 10 8 4 3 5 6 8 13 18 24 27 27 27 27 26 25 23 22 21 22 22 21

GFSNGP_500_spd_036.txt.gz
Wind_Speed
44 46 47 48 50 52 53 56 59 57 59 57 61 62 64 65 66 71 74 78 80 81 78 80 84 89 92 91 86 84 80 74 68 65 61 59 58 58 57 56 54 55 55 51
47 48 51 52 51 52 57 57 60 60 60 63 65 66 65 67 71 73 74 78 79 75 77 82 88 90 87 80 71 70 69 66 62 58 55 54 51 51 53 52 50 50 51 47
51 50 53 54 56 57 57 58 58 60 62 65 66 66 67 67 69 72 78 78 74 75 78 85 88 86 79 66 66 65 65 62 59 57 52 49 49 48 49 49 45 45 46 44
55 55 58 59 58 58 59 57 57 61 64 65 66 68 65 67 72 75 75 73 74 77 82 85 84 77 68 66 66 64 63 60 56 54 49 44 41 41 40 44 44 42 42 42
58 60 62 58 57 61 62 57 59 63 64 64 67 66 65 68 72 74 72 74 75 80 84 84 76 71 62 64 64 63 61 59 56 52 48 41 37 41 42 43 44 40 38 39
59 62 64 60 59 61 63 61 61 62 62 65 66 68 64 69 71 68 71 72 76 81 83 77 71 65 64 63 64 64 60 57 54 52 48 45 39 35 38 39 38 34 34 34
59 62 63 56 58 60 60 62 61 61 62 65 66 66 68 68 65 68 68 70 73 78 78 71 65 62 64 68 66 63 59 55 52 49 46 41 39 34 30 30 30 29 27 27
56 57 57 52 56 60 60 60 61 62 63 64 64 65 65 66 68 66 66 68 73 77 71 62 61 62 68 64 58 56 54 52 48 46 41 37 32 26 24 23 25 20 19 19
53 54 51 51 57 58 58 59 59 62 61 60 63 62 64 65 63 65 68 70 75 73 63 57 59 61 67 57 56 57 49 46 45 42 39 34 26 23 19 19 14 16 17 13
49 47 54 59 59 57 55 57 59 58 59 60 60 63 64 62 61 64 66 70 73 67 57 55 58 60 63 58 58 56 45 42 41 37 36 28 18 14 11 11 14 14 10 13
49 55 56 53 50 52 52 53 54 56 57 59 62 62 60 59 61 63 64 69 69 60 52 55 56 60 60 58 60 48 40 35 34 30 28 22 10 2 11 13 11 9 10 5
54 55 55 46 44 48 50 52 53 54 57 61 59 57 56 58 61 63 65 67 62 56 52 55 57 60 57 57 54 49 34 25 26 23 19 13 4 10 12 9 6 6 14 10
51 56 53 47 47 50 47 48 53 57 58 56 55 54 56 57 60 61 64 66 57 52 50 55 56 58 56 57 49 42 24 19 19 17 11 6 9 10 9 8 13 19 15 18
52 58 52 51 50 50 50 52 55 54 53 52 52 53 54 57 58 60 62 61 52 49 48 52 53 54 53 49 39 28 18 16 15 13 16 14 14 10 9 16 19 18 16 26
53 54 49 48 48 49 51 52 51 50 50 50 51 52 53 55 56 58 59 54 49 46 47 48 50 47 48 36 26 19 17 19 21 20 17 14 13 13 20 19 15 15 16 27
51 47 48 49 50 49 49 48 48 48 47 48 48 49 52 53 55 56 55 47 45 42 46 47 47 44 40 25 16 17 21 20 17 16 15 14 14 21 19 18 18 18 27 26
45 40 42 43 45 46 46 46 45 44 44 45 46 49 51 51 52 51 48 42 42 40 42 45 43 40 30 18 13 19 17 19 19 16 14 17 18 17 15 13 15 23 27 29
43 39 40 41 42 42 42 41 41 42 43 44 46 49 49 49 48 46 42 37 35 37 40 42 38 32 23 12 14 17 17 18 20 16 21 18 16 15 16 18 21 24 34 38
35 33 36 38 39 39 39 39 40 41 41 43 46 47 46 46 44 41 37 35 30 32 35 36 33 26 18 10 12 14 14 15 20 16 16 15 14 15 21 23 25 31 36 38
28 34 36 33 33 37 38 37 38 39 41 43 44 44 43 42 40 37 32 33 26 29 33 33 30 20 15 12 9 9 11 13 17 17 17 14 15 19 25 28 30 37 36 35
27 32 33 31 32 36 34 35 37 38 41 41 41 39 39 39 36 32 27 28 24 28 30 28 26 17 14 12 12 8 9 9 13 11 13 15 16 21 28 30 32 35 37 33
30 32 32 30 32 33 32 35 36 38 38 38 37 37 36 36 33 31 22 22 19 22 26 24 22 14 12 8 11 9 11 11 8 9 10 14 19 22 26 28 32 34 33 33
34 34 31 29 30 31 33 34 35 35 35 36 36 35 33 32 29 26 23 21 17 19 22 21 19 11 10 11 13 11 8 8 8 8 11 18 19 22 29 33 33 34 30 28
32 32 30 29 30 31 33 32 33 32 33 34 34 32 31 31 27 23 18 18 13 15 17 17 14 11 7 7 10 10 8 8 10 15 19 24 27 27 27 30 30 27 26 25
30 32 30 31 32 32 31 31 30 30 32 33 32 30 29 27 26 21 17 17 12 12 15 13 11 9 5 5 8 7 7 9 12 16 18 20 24 28 27 28 30 29 26 23
31 34 31 32 33 31 30 30 30 30 33 32 30 29 27 25 23 18 16 16 13 9 12 10 10 7 6 3 7 9 8 8 11 13 14 22 26 28 30 30 29 28 28 27
35 33 33 32 30 28 30 30 32 34 35 33 30 26 23 22 21 17 13 14 13 8 7 7 5 4 3 1 5 7 8 10 12 13 17 22 27 30 30 30 28 26 24 24

GFSNGP_500_spd_042.txt.gz
Wind_Speed
39 41 43 44 44 47 48 49 58 53 57 53 58 60 61 62 63 65 65 66 68 68 70 70 69 71 74 76 74 73 76 78 82 80 72 66 64 68 68 65 63 63 58 55
41 43 47 48 46 48 50 51 56 57 57 56 60 60 60 61 61 63 65 66 67 68 67 67 69 73 75 72 72 76 77 80 81 74 68 67 70 73 67 62 64 59 53 51
47 46 50 52 49 49 52 52 56 58 59 61 62 59 59 59 61 62 64 67 67 66 67 68 73 74 70 71 74 75 78 81 75 69 69 71 73 69 67 64 57 49 48 47
50 49 53 55 54 53 55 55 57 58 57 60 58 57 56 59 61 64 65 66 64 65 66 71 71 68 70 73 74 76 80 77 70 69 71 74 73 69 62 53 47 46 44 43
52 54 56 53 50 53 54 54 50 53 53 51 52 56 58 59 60 62 63 61 62 64 69 69 67 69 72 74 75 78 77 71 69 72 76 74 68 60 49 44 44 43 43 38
49 53 55 45 48 49 53 54 54 52 52 53 55 57 60 62 61 58 58 60 61 67 67 65 67 71 73 74 76 76 70 68 71 74 72 66 56 41 38 40 42 40 29 26
42 46 48 47 50 53 55 56 54 55 56 57 58 59 60 60 59 58 59 60 64 67 64 65 69 70 71 74 74 69 66 68 70 65 57 48 37 38 38 38 30 23 18 20
43 44 45 47 52 56 56 57 59 60 61 58 58 61 60 60 59 59 60 62 65 63 62 65 68 70 71 72 67 63 64 63 59 52 46 37 37 36 33 25 17 14 12 12
41 47 47 51 55 61 61 63 65 66 66 63 61 62 62 61 60 60 60 61 62 60 60 64 67 68 69 65 60 60 56 51 52 45 36 34 30 26 19 14 11 9 6 3
46 49 52 56 60 63 67 69 71 71 69 66 64 62 62 61 58 57 57 60 57 56 59 63 65 66 63 58 56 52 36 39 41 36 27 22 18 17 16 14 11 10 9 6
50 55 62 62 68 69 72 73 75 72 67 64 64 62 60 57 57 56 57 56 53 55 58 61 61 60 55 53 52 37 29 30 32 29 23 21 19 17 16 15 15 14 11 11
58 60 65 65 69 71 72 74 73 67 63 61 61 59 56 55 54 53 53 50 52 55 57 57 58 53 49 50 43 27 27 26 24 22 21 21 19 19 18 15 12 11 13 15
61 61 63 66 68 70 66 65 64 61 59 58 55 54 52 50 49 50 46 47 50 54 54 55 51 46 47 44 31 25 25 24 17 19 19 16 16 21 22 19 17 19 19 19
63 65 65 67 67 61 61 60 57 53 51 52 51 49 46 47 46 43 44 46 49 50 51 50 44 42 44 36 21 22 24 24 21 17 13 13 16 18 20 16 16 17 19 20
63 63 65 60 54 51 51 49 43 42 44 45 45 43 43 41 40 41 42 45 46 47 48 43 39 39 35 22 20 19 24 15 14 14 14 13 15 16 16 15 16 17 18 16
55 54 52 48 43 40 39 39 38 39 40 41 40 39 38 36 37 38 41 42 43 44 42 37 34 35 24 16 18 21 13 13 16 16 15 15 16 18 17 17 16 13 12 12
43 44 45 42 37 33 33 35 36 36 35 35 37 33 32 34 35 38 39 40 42 40 37 33 31 28 14 13 15 12 11 13 15 14 15 13 17 21 16 13 10 14 20 22
39 41 40 36 36 31 31 32 33 35 34 33 30 30 32 33 36 36 36 37 39 37 32 29 30 24 11 10 11 9 12 14 17 17 15 19 20 17 15 17 19 21 25 25
39 39 37 33 33 29 30 27 25 24 27 29 31 32 32 33 34 34 33 35 33 33 29 25 26 19 11 9 5 5 12 15 17 17 13 16 18 21 21 22 21 20 22 26
38 39 36 37 38 33 32 27 25 25 27 30 32 31 30 31 30 31 33 33 29 29 23 19 21 16 8 5 5 3 10 16 16 15 14 15 17 21 20 20 19 23 29 29
37 39 39 36 39 37 38 28 27 29 29 30 29 27 28 28 28 31 32 31 29 27 22 17 17 12 6 2 3 3 3 12 11 11 15 17 20 21 18 19 23 25 26 26
36 30 30 30 27 32 31 30 26 27 26 27 26 26 26 26 27 31 31 29 27 23 19 15 15 10 5 4 3 4 6 9 8 15 19 21 20 18 16 23 24 25 25 23
30 31 31 30 29 25 26 28 26 25 24 25 25 25 25 25 29 33 30 27 24 20 17 12 13 8 3 4 2 4 5 6 11 16 22 25 22 19 20 25 25 22 21 20
33 36 35 31 26 26 29 33 29 25 23 23 24 24 23 25 30 31 27 25 22 18 15 10 9 8 3 4 4 2 3 9 18 23 24 24 21 21 24 25 22 18 17 21
32 29 28 28 28 28 28 30 27 25 21 23 24 24 24 27 29 27 24 23 20 15 12 8 7 6 2 4 5 3 7 13 22 27 24 24 23 25 25 23 21 18 20 22
29 26 26 25 26 26 24 25 27 26 23 22 22 23 24 26 27 25 23 22 19 15 11 7 4 3 2 6 10 8 7 12 18 25 25 25 25 25 26 26 24 21 20 22
22 23 23 23 26 25 23 27 26 24 25 23 21 22 23 24 26 24 22 20 17 13 11 8 7 3 2 5 11 12 10 11 16 21 25 26 27 25 25 23 23 22 20 21

GFSNGP_500_spd_045.txt.gz
Wind_Speed
36 38 40 41 41 45 47 45 51 52 55 52 57 60 63 65 65 64 65 66 66 66 68 70 70 71 71 73 74 76 73 73 77 81 81 82 84 82 77 73 72 72 72 69
38 41 43 46 44 46 47 50 55 55 56 59 59 61 59 60 60 61 61 63 66 68 68 69 69 70 71 72 74 72 71 76 80 81 82 83 80 76 75 76 76 73 69 64
44 45 46 47 48 48 50 50 53 54 54 58 57 56 55 56 57 59 64 65 67 67 67 67 68 70 70 72 71 70 74 78 80 80 80 77 75 77 76 69 65 62 56 49
45 46 48 49 49 49 50 50 51 51 50 52 54 55 55 57 57 62 64 65 65 67 68 68 69 70 70 70 69 71 75 78 78 77 73 73 74 71 62 56 48 43 41 42
46 48 49 43 41 44 47 46 47 49 49 50 53 54 57 59 62 64 66 68 68 68 67 67 69 68 68 66 68 72 74 75 73 69 68 65 67 58 51 46 45 46 44 43
41 42 44 43 41 42 47 51 53 55 56 57 58 60 63 66 67 68 68 68 68 66 66 66 64 66 64 65 69 71 73 70 64 57 56 60 56 48 47 46 42 37 32 28
35 41 42 41 47 50 54 58 60 61 62 64 65 66 66 68 69 70 69 68 66 63 63 62 63 63 61 65 68 70 68 61 56 43 51 55 52 46 40 33 30 26 23 22
36 41 47 48 53 55 58 59 62 64 66 66 65 66 65 67 69 69 67 64 62 61 61 61 60 59 62 65 67 66 58 56 42 42 45 45 48 43 37 33 30 26 22 19
40 48 49 53 54 57 59 61 63 65 66 67 68 69 70 67 68 66 63 61 59 57 57 57 56 58 61 63 64 56 54 41 37 40 39 42 38 33 30 28 26 25 24 21
48 48 50 53 57 59 62 64 62 62 64 68 70 70 70 67 64 61 58 55 53 52 53 51 53 57 59 61 56 51 39 33 34 36 34 35 28 26 27 29 28 27 26 27
52 51 51 54 59 62 62 62 62 64 68 70 70 66 61 59 56 52 50 48 48 49 47 49 52 55 57 55 48 38 30 32 34 31 29 28 27 29 28 27 24 24 24 24
54 55 57 57 58 59 59 60 65 68 69 67 62 54 47 45 44 44 43 45 45 44 45 48 51 52 52 45 42 28 29 31 30 25 25 21 23 28 24 22 23 25 27 25
56 57 56 55 55 60 62 63 63 62 58 55 47 37 39 40 42 40 42 41 41 41 44 46 48 49 43 41 29 28 30 29 21 20 20 17 20 21 17 20 21 24 27 26
56 56 56 57 56 58 60 59 56 50 48 38 34 34 38 40 39 39 38 37 38 41 43 44 45 41 37 33 24 26 27 22 18 18 19 18 17 12 13 16 17 21 24 26
57 57 56 56 57 54 52 47 43 41 36 34 35 39 38 35 38 36 35 35 38 39 40 42 41 34 34 27 20 23 21 18 18 18 18 13 11 12 10 11 17 19 20 18
54 55 53 53 48 44 42 39 35 34 35 32 31 34 34 36 34 33 33 35 36 36 39 39 35 28 30 21 17 22 21 18 18 18 11 11 11 12 10 14 19 17 16 19
52 52 51 45 41 39 36 34 30 31 35 33 34 26 27 30 32 33 33 34 34 36 39 36 29 25 26 13 14 19 19 14 14 12 10 10 11 13 15 16 16 17 19 21
52 51 48 44 39 36 33 33 33 36 27 30 24 25 30 32 33 31 31 31 33 37 37 32 25 25 23 11 14 16 15 10 8 11 9 10 11 15 17 17 16 17 17 15
49 46 43 41 39 36 36 34 32 27 26 26 24 27 29 29 28 27 27 28 32 35 33 29 24 24 21 12 13 13 10 9 6 11 10 11 14 16 17 15 13 14 14 16
47 47 45 38 38 38 38 34 25 23 26 23 25 25 25 25 24 24 24 28 32 33 28 24 20 21 17 11 12 10 6 8 5 11 14 15 17 14 12 13 13 18 18 18
40 37 32 29 27 25 29 28 22 20 25 25 24 24 23 22 22 24 25 29 32 31 25 21 17 16 13 10 11 9 8 8 5 13 15 16 15 12 13 15 16 19 20 21
28 28 28 26 30 29 24 23 24 21 21 23 22 22 22 21 23 22 26 31 31 26 23 18 16 15 11 8 7 6 4 4 7 14 16 16 14 13 14 15 16 18 21 22
32 33 32 31 31 30 26 24 21 22 24 25 24 20 19 21 22 23 27 30 28 22 21 16 14 14 10 7 6 6 5 4 9 15 18 17 17 16 14 16 15 16 19 22
37 37 35 29 31 30 29 26 24 24 24 25 24 23 19 20 22 23 27 30 26 21 19 14 12 10 7 7 6 5 2 4 11 16 19 18 18 17 16 12 12 15 19 22
33 31 30 27 27 27 26 24 24 25 25 23 21 21 20 21 22 22 26 28 24 19 17 12 11 9 5 5 4 4 5 9 15 19 19 19 20 18 15 11 10 15 18 21
31 31 28 23 22 23 23 23 23 22 21 21 21 20 19 20 21 21 24 26 21 18 14 10 9 7 6 4 6 7 9 12 18 21 20 21 23 20 17 13 10 15 18 20
33 32 29 27 26 24 23 21 22 23 24 23 22 20 22 21 19 18 22 23 19 16 13 10 9 7 5 3 5 5 7 11 18 22 23 23 24 22 19 16 15 15 17 18